Overview Statistics Trail Chart Weather Telemetry Raw packets
 

This is the latest recevied weather packets stored in our database for station/object W5GMO. If no packets are shown the sender has not sent any weather packets the latest 10 day(s).

<< 12 13 14 15 16 17 18 >>
Time Temp. Humidity Pressure Rain* Wind** Luminosity Snow
1788554144 31.67° C 1% 1012.8 hPa 0 mm - 26 W/m² -
1788553840 31.67° C 1% 1013.1 hPa 0 mm - 42 W/m² -
1788553537 31.67° C 1% 1013 hPa 0 mm - 56 W/m² -
1788553233 32.22° C 1% 1013 hPa 0 mm - 82 W/m² -
1788552933 32.22° C 1% 1012.8 hPa 0 mm - 106 W/m² -
1788552628 32.22° C 1% 1012.8 hPa 0 mm - 139 W/m² -
1788552326 32.22° C 1% 1012.9 hPa 0 mm - 168 W/m² -
1788552022 32.22° C 1% 1012.7 hPa 0 mm - 181 W/m² -
1788551721 32.22° C 1% 1012.6 hPa 0 mm - 187 W/m² -
1788551420 32.22° C 1% 1012.6 hPa 0 mm - 189 W/m² -
1788551115 32.78° C 1% 1012.6 hPa 0 mm - 188 W/m² -
1788550809 33.33° C 1% 1012.5 hPa 0 mm - 225 W/m² -
1788550505 33.89° C 1% 1012.8 hPa 0 mm - 289 W/m² -
1788550200 33.89° C 1% 1012.8 hPa 0 mm - 437 W/m² -
1788549900 33.89° C 1% 1012.8 hPa 0 mm - 423 W/m² -
1788549596 33.89° C 1% 1012.7 hPa 0 mm - 556 W/m² -
1788549293 33.33° C 1% 1012.6 hPa 0 mm - 528 W/m² -
1788548989 33.33° C 1% 1012.6 hPa 0 mm - 482 W/m² -
1788548684 33.33° C 1% 1012.8 hPa 0 mm - 497 W/m² -
1788548380 33.33° C 1% 1012.8 hPa 0 mm - 542 W/m² -
1788548077 33.89° C 1% 1013 hPa 0 mm - 630 W/m² -
1788547776 33.89° C 1% 1013.2 hPa 0 mm - 562 W/m² -
1788547471 33.33° C 1% 1013.5 hPa 0 mm - 635 W/m² -
1788547166 33.33° C 1% 1013.3 hPa 0 mm - 652 W/m² -
1788546861 33.89° C 1% 1013.4 hPa 0 mm - 600 W/m² -

* Rain latest hour (hover to see other rain measurements)
** Current wind speed in m/s (hover to see current wind gust speed)